Shreveport, LA

6:28 PM CST on January 20, 2017 (GMT -0600)
Shreveport Downtown

Weather History for KDTN - August, 2014

Change the Weather History Date:

Friday, August 29, 2014

  Actual Average (KBAD) Record (KBAD)
Temperature  
Mean Temperature 83 °F -  
Max Temperature 93 °F 88 °F 98 °F (2013)
Min Temperature 73 °F 68 °F 66 °F (2015)
Cooling Degree Days 18    
Growing Degree Days 33 (Base 50)    
Moisture  
Dew Point 71 °F    
Average Humidity 72    
Maximum Humidity 94    
Minimum Humidity 44    
Precipitation  
Precipitation 0.14 in - - ()
Sea Level Pressure  
Sea Level Pressure 29.92 in    
Wind  
Wind Speed 6 mph (SE)    
Max Wind Speed 17 mph    
Max Gust Speed 28 mph    
Visibility 9 miles    
Events Rain , Thunderstorm    
Averages and records for this station are not official NWS values.
T = Trace of Precipitation, MM = Missing Value Source: NWS Daily Summary

Daily Weather History Graph

Daily Weather History Graph

Search for Another Location

Airport or City:

Trip Planner

Search our weather history database for the weather conditions in past years. The results will help you decide how hot, cold, wet, or windy it might be!

Date:

Astronomy

Aug. 29, 2014 Rise Set
Actual Time 6:47 AM CDT 7:43 PM CDT
Civil Twilight 6:22 AM CDT 8:08 PM CDT
Nautical Twilight 5:52 AM CDT 8:38 PM CDT
Astronomical Twilight 5:22 AM CDT 9:08 PM CDT
Moon 10:23 AM CDT (8/29) 9:57 PM CDT (8/29)
Length of Visible Light 13h 45m
Length of Day
12h 55m
Waxing Crescent, 15% of the Moon is Illuminated
Aug 29
Waxing Crescent
Sep 2
First Quarter
Sep 8
Full
Sep 15
Last Quarter
Sep 24
New

Hourly Weather History & Observations

Time (CDT) Temp. Heat Index Dew Point Humidity Pressure Visibility Wind Dir Wind Speed Gust Speed Precip Events Conditions
12:53 AM 79.0 °F - 73.0 °F 82% 29.94 in 10.0 mi SSE 4.6 mph - N/A   Scattered Clouds
1:53 AM 81.0 °F 85.2 °F 72.0 °F 74% 29.92 in 10.0 mi South 5.8 mph - N/A   Clear
2:53 AM 79.0 °F - 73.0 °F 82% 29.90 in 10.0 mi SE 3.5 mph - N/A   Clear
3:53 AM 78.1 °F - 73.0 °F 84% 29.91 in 10.0 mi SSE 4.6 mph - N/A   Clear
4:53 AM 78.1 °F - 73.0 °F 84% 29.92 in 10.0 mi Calm Calm - N/A   Clear
5:53 AM 79.0 °F - 73.0 °F 82% 29.93 in 10.0 mi SW 4.6 mph - N/A   Clear
6:53 AM 75.9 °F - 73.0 °F 91% 29.94 in 10.0 mi SE 3.5 mph - N/A   Partly Cloudy
7:53 AM 78.1 °F - 73.0 °F 84% 29.95 in 10.0 mi SE 3.5 mph - N/A   Scattered Clouds
8:53 AM 81.0 °F 86.2 °F 73.9 °F 79% 29.94 in 10.0 mi Variable 3.5 mph - N/A   Mostly Cloudy
10:53 AM 87.1 °F 92.8 °F 71.1 °F 59% 29.94 in 10.0 mi ESE 8.1 mph - N/A   Clear
11:53 AM 88.0 °F 92.1 °F 69.1 °F 53% 29.96 in 10.0 mi SE 10.4 mph - N/A   Clear
12:53 PM 90.0 °F 92.8 °F 66.9 °F 46% 29.92 in 10.0 mi SE 8.1 mph - N/A   Clear
1:53 PM 93.0 °F 97.4 °F 68.0 °F 44% 29.89 in 10.0 mi SE 12.7 mph 17.3 mph N/A   Clear
3:53 PM 91.9 °F 95.9 °F 68.0 °F 45% 29.86 in 10.0 mi SSE 11.5 mph 20.7 mph N/A   Partly Cloudy
4:53 PM 91.9 °F 95.9 °F 68.0 °F 45% 29.85 in 10.0 mi SE 12.7 mph 21.9 mph N/A   Clear
5:53 PM 89.1 °F 92.9 °F 68.0 °F 50% 29.86 in 10.0 mi SSE 15.0 mph 19.6 mph N/A   Clear
6:53 PM 88.0 °F 91.4 °F 68.0 °F 51% 29.88 in 10.0 mi SE 10.4 mph - N/A   Clear
7:22 PM 87.8 °F 92.6 °F 69.8 °F 55% 29.89 in 10.0 mi SE 8.1 mph - N/A Thunderstorm Clear
7:53 PM 84.9 °F 89.4 °F 70.0 °F 61% 29.89 in 10.0 mi South 9.2 mph - N/A   Mostly Cloudy
8:01 PM 84.2 °F 89.6 °F 71.6 °F 66% 29.90 in 10.0 mi South 9.2 mph - 0.00 in Rain , Thunderstorm Light Rain
8:17 PM 78.8 °F - 73.4 °F 83% 29.94 in 1.5 mi SSW 17.3 mph 27.6 mph 0.04 in Rain , Thunderstorm Heavy Thunderstorms and Rain
8:40 PM 73.4 °F - 71.6 °F 94% 29.95 in 2.0 mi East 5.8 mph - 0.12 in Rain , Thunderstorm Thunderstorms and Rain
8:48 PM 73.4 °F - 71.6 °F 94% 29.95 in 5.0 mi Calm Calm - 0.14 in Rain , Thunderstorm Light Thunderstorms and Rain
8:53 PM 73.9 °F - 72.0 °F 93% 29.94 in 4.0 mi North 3.5 mph - 0.14 in Rain , Thunderstorm Heavy Thunderstorms and Rain
10:53 PM 77.0 °F - 73.9 °F 90% 29.93 in 10.0 mi East 3.5 mph - N/A   Clear
11:53 PM 77.0 °F - 73.9 °F 90% 29.95 in 10.0 mi Calm Calm - N/A   Clear